• In Belarus
  • List of Countries
  • For 7 days
  • Water Temperature
  • Satellite Maps
  • Weather Map
  • Weather Widgets
  • user-avatar
    Login

    Hourly Weather Yuryatino

    Today, 22 October, Monday

    Time Temperature Precipitation Wind Pressure Humidity
    00:00 +2°C° 0 mm 2 mps 752 mmHg 89%
    01:00 +2°C° 0 mm 2 mps 752 mmHg 89%
    02:00 +2°C° 0 mm 2 mps 752 mmHg 90%
    03:00 +2°C° 0 mm 2 mps 752 mmHg 90%
    04:00 +1°C° 0 mm 3 mps 751 mmHg 91%
    05:00 +1°C° 0 mm 3 mps 751 mmHg 91%
    06:00 +1°C° 0 mm 3 mps 751 mmHg 89%
    07:00 +2°C° 0 mm 3 mps 750 mmHg 87%
    08:00 +1°C° 0 mm 4 mps 750 mmHg 85%
    09:00 +3°C° 0 mm 4 mps 749 mmHg 79%
    10:00 +5°C° 0 mm 4 mps 749 mmHg 74%
    11:00 +6°C° 0 mm 5 mps 748 mmHg 68%
    12:00 +7°C° 0 mm 5 mps 748 mmHg 66%
    13:00 +7°C° 0 mm 5 mps 747 mmHg 65%
    14:00 +7°C° 0 mm 5 mps 746 mmHg 64%
    15:00 +7°C° 0 mm 5 mps 746 mmHg 67%
    16:00 +6°C° 0 mm 5 mps 745 mmHg 71%
    17:00 +5°C° 0 mm 4 mps 745 mmHg 75%
    18:00 +5°C° 0 mm 5 mps 744 mmHg 77%
    19:00 +3°C° 0 mm 5 mps 744 mmHg 79%
    20:00 +3°C° 0 mm 5 mps 743 mmHg 81%
    21:00 +3°C° 0.1 mm 5 mps 742 mmHg 82%
    22:00 +4°C° 0.1 mm 4 mps 742 mmHg 84%
    23:00 +4°C° 0.1 mm 4 mps 741 mmHg 86%

    Tomorrow, 23 October, Tuesday

    Time Temperature Precipitation Wind Pressure Humidity
    00:00 +4°C° 0.4 mm 4 mps 741 mmHg 87%
    01:00 +4°C° 0.4 mm 4 mps 740 mmHg 88%
    02:00 +4°C° 0.4 mm 4 mps 740 mmHg 90%
    03:00 +4°C° 0.5 mm 4 mps 739 mmHg 90%
    04:00 +4°C° 0.5 mm 3 mps 739 mmHg 90%
    05:00 +4°C° 0.5 mm 3 mps 739 mmHg 90%
    06:00 +4°C° 0 mm 3 mps 739 mmHg 90%
    07:00 +4°C° 0 mm 3 mps 739 mmHg 89%
    08:00 +3°C° 0 mm 3 mps 739 mmHg 88%
    09:00 +4°C° 0 mm 3 mps 738 mmHg 82%
    10:00 +5°C° 0 mm 3 mps 738 mmHg 76%
    11:00 +5°C° 0 mm 3 mps 738 mmHg 70%
    12:00 +7°C° 0 mm 2 mps 738 mmHg 67%
    13:00 +7°C° 0 mm 2 mps 737 mmHg 64%
    14:00 +7°C° 0 mm 2 mps 736 mmHg 60%
    15:00 +6°C° 0 mm 2 mps 736 mmHg 65%
    16:00 +5°C° 0 mm 2 mps 735 mmHg 70%
    17:00 +6°C° 0 mm 1 mps 734 mmHg 75%
    18:00 +4°C° 0 mm 2 mps 734 mmHg 77%
    19:00 +4°C° 0 mm 2 mps 733 mmHg 79%
    20:00 +3°C° 0 mm 2 mps 732 mmHg 81%
    21:00 +3°C° 0 mm 2 mps 732 mmHg 83%
    22:00 +3°C° 0 mm 2 mps 731 mmHg 84%
    23:00 +2°C° 0 mm 2 mps 730 mmHg 86%

    Day after tomorrow, 24 October, Wednesday

    Time Temperature Precipitation Wind Pressure Humidity
    00:00 +2°C° 0 mm 2 mps 729 mmHg 88%
    01:00 +2°C° 0 mm 2 mps 729 mmHg 90%
    02:00 0°C° 0 mm 3 mps 728 mmHg 91%
    03:00 0°C° 0 mm 3 mps 727 mmHg 91%
    04:00 0°C° 0 mm 3 mps 726 mmHg 92%
    05:00 0°C° 0 mm 3 mps 725 mmHg 92%
    06:00 0°C° 0 mm 3 mps 725 mmHg 90%
    07:00 0°C° 0 mm 4 mps 725 mmHg 89%
    08:00 0°C° 0 mm 4 mps 724 mmHg 87%
    09:00 +1°C° 0.1 mm 4 mps 724 mmHg 84%
    10:00 +3°C° 0.1 mm 4 mps 724 mmHg 81%
    11:00 +4°C° 0.1 mm 4 mps 724 mmHg 78%
    12:00 +4°C° 0.2 mm 4 mps 724 mmHg 78%
    13:00 +4°C° 0.2 mm 4 mps 724 mmHg 77%
    14:00 +4°C° 0.2 mm 4 mps 724 mmHg 77%
    15:00 +4°C° 0.3 mm 4 mps 724 mmHg 79%
    16:00 +4°C° 0.3 mm 4 mps 724 mmHg 81%
    17:00 +3°C° 0.3 mm 4 mps 724 mmHg 83%
    18:00 +3°C° 0.6 mm 4 mps 725 mmHg 84%
    19:00 +3°C° 0.6 mm 4 mps 725 mmHg 85%
    20:00 +3°C° 0.6 mm 4 mps 725 mmHg 87%
    21:00 +3°C° 0.4 mm 4 mps 725 mmHg 88%
    22:00 +3°C° 0.4 mm 4 mps 726 mmHg 89%
    23:00 +3°C° 0.4 mm 3 mps 726 mmHg 91%

    25 October, Thursday

    Time Temperature Precipitation Wind Pressure Humidity
    00:00 +3°C° 0.4 mm 3 mps 726 mmHg 91%
    01:00 +3°C° 0.4 mm 3 mps 726 mmHg 91%
    02:00 +3°C° 0.4 mm 3 mps 727 mmHg 91%
    03:00 +3°C° 0.2 mm 3 mps 727 mmHg 91%
    04:00 +3°C° 0.2 mm 3 mps 727 mmHg 91%
    05:00 +1°C° 0.2 mm 4 mps 727 mmHg 90%
    06:00 +1°C° 0.1 mm 4 mps 727 mmHg 89%
    07:00 +1°C° 0.1 mm 4 mps 727 mmHg 89%
    08:00 +1°C° 0.1 mm 4 mps 727 mmHg 88%
    09:00 +1°C° 0 mm 5 mps 727 mmHg 86%
    10:00 +2°C° 0 mm 5 mps 727 mmHg 84%
    11:00 +2°C° 0 mm 5 mps 727 mmHg 82%
    12:00 +2°C° 0 mm 6 mps 727 mmHg 80%
    13:00 +2°C° 0 mm 6 mps 727 mmHg 77%
    14:00 +2°C° 0 mm 6 mps 726 mmHg 75%
    15:00 +2°C° 0 mm 6 mps 726 mmHg 75%
    16:00 +1°C° 0 mm 6 mps 726 mmHg 76%
    17:00 +1°C° 0 mm 6 mps 726 mmHg 77%
    18:00 -1°C° 0 mm 6 mps 726 mmHg 79%
    19:00 -1°C° 0 mm 6 mps 726 mmHg 80%
    20:00 -2°C° 0 mm 6 mps 726 mmHg 81%
    21:00 -1°C° 0 mm 5 mps 726 mmHg 83%
    22:00 -1°C° 0 mm 5 mps 727 mmHg 84%
    23:00 -1°C° 0 mm 5 mps 727 mmHg 85%

    26 October, Friday

    Time Temperature Precipitation Wind Pressure Humidity
    00:00 -1°C° 0 mm 4 mps 727 mmHg 86%
    01:00 -1°C° 0 mm 4 mps 728 mmHg 87%
    02:00 0°C° 0 mm 4 mps 728 mmHg 88%
    03:00 0°C° 0 mm 4 mps 728 mmHg 87%
    04:00 0°C° 0 mm 4 mps 729 mmHg 85%
    05:00 0°C° 0 mm 4 mps 729 mmHg 83%
    06:00 +1°C° 0 mm 4 mps 730 mmHg 83%
    07:00 +1°C° 0 mm 4 mps 730 mmHg 83%
    08:00 +1°C° 0 mm 4 mps 730 mmHg 82%
    09:00 +1°C° 0.1 mm 4 mps 731 mmHg 80%
    10:00 +1°C° 0.1 mm 4 mps 731 mmHg 78%
    11:00 +2°C° 0.1 mm 5 mps 732 mmHg 76%
    12:00 +3°C° 0 mm 4 mps 732 mmHg 76%
    13:00 +3°C° 0 mm 4 mps 733 mmHg 76%
    14:00 +3°C° 0 mm 4 mps 733 mmHg 76%
    15:00 +3°C° 0 mm 4 mps 734 mmHg 78%
    16:00 +2°C° 0 mm 3 mps 734 mmHg 79%
    17:00 +2°C° 0 mm 3 mps 735 mmHg 81%
    18:00 +2°C° 0 mm 3 mps 735 mmHg 83%
    19:00 +2°C° 0 mm 3 mps 735 mmHg 85%
    20:00 +2°C° 0 mm 3 mps 735 mmHg 87%
    21:00 +1°C° 0 mm 3 mps 735 mmHg 89%
    22:00 +1°C° 0 mm 3 mps 735 mmHg 91%
    23:00 +1°C° 0 mm 3 mps 735 mmHg 94%

    27 October, Saturday

    Time Temperature Precipitation Wind Pressure Humidity
    00:00 +1°C° 0 mm 3 mps 735 mmHg 93%
    01:00 0°C° 0 mm 4 mps 735 mmHg 92%
    02:00 +1°C° 0 mm 4 mps 735 mmHg 90%
    03:00 +1°C° 0.7 mm 4 mps 734 mmHg 90%
    04:00 +2°C° 0.7 mm 5 mps 734 mmHg 89%
    05:00 +3°C° 0.7 mm 5 mps 733 mmHg 89%
    06:00 +5°C° 0.1 mm 5 mps 733 mmHg 88%
    07:00 +4°C° 0.1 mm 6 mps 733 mmHg 86%
    08:00 +5°C° 0.1 mm 6 mps 733 mmHg 85%
    09:00 +5°C° 0.1 mm 6 mps 734 mmHg 84%
    10:00 +6°C° 0.1 mm 5 mps 734 mmHg 83%
    11:00 +6°C° 0.1 mm 5 mps 735 mmHg 82%
    12:00 +6°C° 0 mm 5 mps 735 mmHg 80%
    13:00 +6°C° 0 mm 5 mps 735 mmHg 78%
    14:00 +7°C° 0 mm 5 mps 736 mmHg 76%
    15:00 +6°C° 0 mm 4 mps 736 mmHg 79%
    16:00 +6°C° 0 mm 4 mps 737 mmHg 81%
    17:00 +5°C° 0 mm 3 mps 737 mmHg 83%
    18:00 +5°C° 0 mm 3 mps 738 mmHg 85%
    19:00 +5°C° 0 mm 3 mps 738 mmHg 87%
    20:00 +5°C° 0 mm 3 mps 738 mmHg 89%
    21:00 +4°C° 0 mm 3 mps 738 mmHg 91%
    22:00 +5°C° 0 mm 2 mps 738 mmHg 92%
    23:00 +5°C° 0 mm 2 mps 739 mmHg 93%

    28 October, Sunday

    Time Temperature Precipitation Wind Pressure Humidity
    00:00 +5°C° 0.1 mm 2 mps 738 mmHg 94%
    01:00 +5°C° 0.1 mm 2 mps 738 mmHg 95%
    02:00 +6°C° 0.1 mm 1 mps 738 mmHg 96%
    03:00 +6°C° 0.8 mm 1 mps 738 mmHg 96%
    04:00 +5°C° 0.8 mm 2 mps 737 mmHg 97%
    05:00 +5°C° 0.8 mm 2 mps 737 mmHg 97%
    06:00 +5°C° 0.6 mm 2 mps 737 mmHg 97%
    07:00 +6°C° 0.6 mm 2 mps 737 mmHg 97%
    08:00 +6°C° 0.6 mm 2 mps 737 mmHg 96%
    09:00 +6°C° 0.7 mm 2 mps 737 mmHg 96%
    10:00 +6°C° 0.7 mm 2 mps 737 mmHg 96%
    11:00 +7°C° 0.7 mm 2 mps 737 mmHg 96%
    12:00 +7°C° 0.5 mm 2 mps 737 mmHg 95%
    13:00 +7°C° 0.5 mm 2 mps 738 mmHg 95%
    14:00 +7°C° 0.5 mm 3 mps 738 mmHg 94%
    15:00 +5°C° 0.8 mm 3 mps 738 mmHg 94%
    16:00 +5°C° 0.8 mm 3 mps 739 mmHg 93%
    17:00 +5°C° 0.8 mm 3 mps 739 mmHg 93%
    18:00 +4°C° 1.3 mm 3 mps 739 mmHg 93%
    19:00 +4°C° 1.3 mm 3 mps 740 mmHg 93%
    20:00 +4°C° 1.3 mm 3 mps 740 mmHg 93%
    21:00 +4°C° 0.8 mm 3 mps 740 mmHg 92%
    22:00 +4°C° 0.8 mm 3 mps 741 mmHg 92%
    23:00 +4°C° 0.8 mm 3 mps 741 mmHg 91%
    Show more